Location: The Saddle
(36.8333°N, 80.3417°W)
Time: 00:24:09
(UTC-04:00)

SEEDS - Pass Details

Date: 18 March 2026
Orbit: 470 x 477 km, 97.8° (Epoch: 20 April)

Event Time Altitude Azimuth Distance (km) Brightness Sun altitude
Rises 06:50:03 0° 8° (N) 2,544 ? -8.4°
Reaches altitude 10° 06:52:08 10° 5° (N) 1,658 ? -8.0°
Maximum altitude 06:55:39 64° 284° (WNW) 535 ? -7.3°
Drops below altitude 10° 06:59:08 10° 203° (SSW) 1,639 ? -6.6°
Sets 07:01:11 0° 200° (SSW) 2,510 ? -6.2°
